Weather in Alert

Canada     82°30′11″N   62°21′10″W
temp.,
°C
wind,
m/s
gust,
m/s
humid.,
%
clouds,
%
prec.,
mm/h
press.,
hPa
HPBL,
m
16 may, sun
sun1623:00−11sw33633 0.0 102412
02:00−11sw33625 0.0 102414
05:00−10sw336425 0.0 102413
08:00−8sw226613 0.0 102413
11:00−6wsw116354 0.0 102433
14:00−6wnw116549 0.0 102456
17:00−7wsw11709 0.0 102510
20:00−9sw22735 0.0 102610
17 may, mon
mon1723:00−11sw33725 0.0 102611
02:00−11sw33702 0.0 102611
05:00−10sw227129 0.0 102611
08:00−8wsw227411 0.0 102713
11:00−6w117061 0.0 102632
14:00−6nw117067 0.0 102515
17:00−7wnw116794 0.0 102510
20:00−8wsw2271100 0.0 102410
18 may, tue
tue1823:00−9wsw2270100 0.0 102210
02:00−9sw2269100 0.0 102110
05:00−8s347193 0.0 102148
08:00−5ssw51075100 0.0 1019390
11:00−6ssw7126613 0.0 1018519
14:00−6sw4673100 0.0 1018452
17:00−5sw337672 0.1 102184
20:00−6sw467890 0.1 102383
19 may, wed
wed1923:00−9sw43825 0.0 102525
02:00−9sw33824 0.0 102517
05:00−8sw228131 0.0 102613
08:00−7s228168 0.0 102618
11:00−5sse127570 0.0 102684
14:00−4e117412 0.0 1026121
17:00−5ese118019 0.0 1026111
20:00−7sw018471 0.0 102610
20 may, thu
thu2023:00−8wsw118261 0.0 102510
02:00−9w228046 0.0 102510
05:00−9wnw228361 0.0 102513
08:00−7nw238447 0.0 102486
11:00−6nnw33825 0.0 1024146
14:00−6nnw33825 0.0 1023172
17:00−6nw22868 0.0 102346
20:00−8wnw22919 0.0 102313